Weather in Cheyenne

United States     41°08′04″N   104°47′53″W
В апреле 2022 года жителям России запретили посещать сайт meteo.paraplan.net по решению Генеральной прокуратуры. Аудитория сайта уменьшилась в 10 раз. Владельцы сайта не видят смысла в поддержке погодного сервера в таких условиях. Сайт будет закрыт в октябре.
temp.,
°C
wind,
m/s
gust,
m/s
humid.,
%
clouds,
%
prec.,
mm/h
press.,
hPa
HPBL,
m
4 october, tue
tue401:00+9nnw338032 0.3 102150
04:00+9nw34768 0.0 102057
07:00+8n33801 0.0 102131
10:00+11nw23615 0.0 1020249
13:00+16nne263561 0.0 10182301
16:00+18ne2628100 0.0 10152518
19:00+14e434791 0.0 1017320
22:00+11ne115838 0.0 101910
5 october, wed
wed501:00+9nne35625 0.0 102287
04:00+8nw22654 0.0 102313
07:00+7nw22651 0.0 102311
10:00+11wnw11500 0.0 1023235
13:00+16se01380 0.0 10221524
16:00+18ene12283 0.0 10192110
19:00+17ene34300 0.0 1020144
22:00+12se33470 0.0 102331
6 october, thu
thu601:00+11s33501 0.0 102324
04:00+10ssw22545 0.0 102316
07:00+9ssw226017 0.0 102410
10:00+13ssw224617 0.0 1024230
13:00+17sse333425 0.0 10231701
16:00+19se42288 0.0 10212366
19:00+17se563218 0.0 1022266
22:00+13ese374354 0.0 1025158
7 october, fri
fri701:00+9se596923 0.0 1027377
04:00+7ese34820 0.0 1027111
07:00+5se35922 0.0 1028160
10:00+8s558118 0.0 1027300
13:00+15sse12440 0.0 1023799
16:00+19ne673010 0.0 10202014
19:00+15ese244574 0.0 1022259
22:00+11ene22605 0.0 102424
8 october, sat
sat801:00+9n34674 0.0 102553
04:00+8nw33704 0.0 102539
07:00+7nw22732 0.0 102511
10:00+12nw11550 0.0 1024195
13:00+16s23360 0.0 10211569
16:00+20ne272028 0.0 10173112
19:00+17s563299 0.0 1016377
22:00+12ssw49505 0.0 1019191